Theta_e
345 354 358 355 354 354 355 355 354 354 354 352 350 349 349 348 347 346 346 346 346 345 346 345 345 345 345 345 345 345 347 351 351 353 355 358 355 354 353 353 353 351 357
349 352 357 356 354 354 354 354 353 353 351 349 349 349 348 346 345 346 345 344 343 342 343 343 342 340 340 340 341 342 343 347 350 351 352 357 356 354 354 355 355 353 357
349 352 352 355 355 355 356 355 353 350 350 348 348 347 345 344 345 344 342 342 341 340 340 339 338 340 343 343 346 354 352 347 350 351 353 351 351 353 354 354 353 353 355
351 350 350 354 356 357 356 352 351 349 348 348 347 345 343 344 343 342 341 340 339 339 338 340 343 352 351 350 355 353 354 350 350 352 350 347 347 351 353 352 352 352 352
350 350 354 353 357 355 355 351 349 348 347 347 346 343 343 343 342 341 341 342 342 343 344 344 347 352 353 355 355 355 354 353 352 351 346 346 347 352 351 350 350 352 353
348 348 353 354 357 356 354 349 348 347 347 346 344 343 343 341 341 342 343 342 342 344 345 347 351 353 353 353 351 350 350 348 353 344 345 346 347 347 349 351 351 352 352
344 347 350 355 358 355 351 349 348 347 347 345 343 342 341 340 341 341 341 341 341 343 347 348 351 351 351 350 350 350 349 350 343 342 343 346 348 350 350 350 350 349 349
343 344 347 357 357 353 350 348 347 347 346 344 342 341 340 340 340 341 340 341 342 346 350 351 351 349 348 348 348 348 346 347 341 340 341 343 347 348 348 347 346 347 347
344 344 345 352 355 352 349 347 346 346 345 343 342 341 340 340 340 340 342 343 343 348 352 351 348 348 347 347 347 345 344 344 340 339 338 345 345 345 346 346 346 346 345
342 343 343 348 349 351 348 347 345 346 345 344 342 341 340 338 338 338 344 343 344 350 350 348 348 348 347 346 345 343 341 342 337 339 343 345 343 343 342 342 342 342 342
340 342 343 345 347 347 345 345 344 344 344 344 343 338 337 337 339 340 340 341 345 349 349 348 347 346 346 345 343 340 345 340 339 343 345 343 343 342 341 340 340 340 339
338 340 342 347 346 347 344 343 340 339 342 345 344 342 341 342 341 338 340 339 346 348 347 346 344 343 344 336 337 341 339 338 341 341 342 340 341 340 339 338 337 337 336
338 340 341 347 351 347 345 344 341 341 344 346 346 346 345 344 345 342 340 338 341 348 341 341 339 337 334 334 334 334 335 335 336 337 337 337 337 336 336 335 334 333 333
340 342 343 347 350 351 347 344 341 340 344 344 345 347 347 342 343 345 341 341 338 340 338 336 335 336 336 335 332 331 332 333 335 335 334 333 333 333 332 331 331 330 330
341 343 344 347 351 351 350 346 343 342 340 345 345 345 348 346 346 342 343 339 340 337 336 334 336 336 334 334 332 331 331 330 330 330 331 331 331 331 330 330 329 329 328
344 345 346 345 351 351 351 349 346 344 344 344 347 350 347 346 347 344 339 338 337 335 334 333 335 333 333 332 332 332 330 329 329 329 329 330 330 330 329 329 327 327 327
348 348 348 347 350 351 352 351 347 343 344 345 348 349 348 346 346 344 339 338 337 336 336 335 334 337 333 333 332 332 331 331 327 328 327 327 329 329 329 329 328 327 326
351 350 351 345 347 351 352 351 347 345 344 347 349 348 345 344 343 342 337 337 335 336 334 331 329 332 331 331 333 333 331 331 329 329 328 328 328 326 328 328 328 327 326
353 353 353 350 346 349 351 351 351 349 344 346 349 347 345 342 340 340 334 337 338 334 334 332 330 332 331 330 330 332 333 331 331 328 329 329 330 329 329 329 328 328 327
349 354 355 352 350 350 350 351 350 350 345 347 347 347 345 343 339 337 331 337 335 333 332 330 332 332 331 330 327 329 331 332 332 331 329 329 330 330 330 331 330 329 329
346 351 354 353 352 350 346 345 346 346 346 346 347 346 344 342 335 332 332 336 335 333 332 333 331 332 329 331 328 326 329 332 332 331 331 330 330 329 330 330 330 329 329
346 350 352 353 353 351 347 349 349 345 348 347 346 342 342 333 330 331 337 336 336 331 333 333 332 327 328 330 325 323 319 324 327 330 331 330 330 330 329 330 330 330 330
345 349 351 353 354 353 353 350 349 348 348 343 342 340 342 337 334 338 338 337 336 334 332 334 333 331 324 327 330 323 318 316 323 327 329 329 331 330 330 330 330 330 332
347 350 352 353 355 354 354 351 349 344 343 346 343 344 344 338 340 338 339 338 337 333 332 331 330 330 330 322 325 326 327 325 318 315 324 326 330 330 332 331 330 331 331
348 350 351 353 354 353 352 351 348 347 345 341 340 347 346 345 341 339 339 339 337 334 334 332 330 331 327 323 321 321 324 322 323 318 313 319 324 327 329 331 331 330 332
348 349 350 351 351 351 351 350 350 348 347 341 343 343 342 342 342 341 340 339 339 337 336 334 334 333 330 327 324 323 320 318 317 317 315 317 318 321 326 329 330 329 328
Wind_Speed
13 17 14 15 14 13 11 12 13 12 12 12 11 11 10 10 10 10 10 9 8 8 7 7 6 6 5 4 4 4 3 5 6 8 9 11 9 10 8 8 4 14 11
16 16 12 13 13 14 13 13 12 12 12 12 11 10 10 9 10 10 10 9 9 8 7 7 6 5 4 4 3 2 1 4 5 6 8 12 10 9 10 11 14 12 11
16 15 15 13 12 13 14 13 13 13 12 11 10 10 9 9 10 10 10 9 8 8 7 6 6 5 2 2 3 4 3 5 5 5 10 10 15 7 9 10 11 12 12
15 13 14 12 12 13 13 12 13 13 12 11 10 9 9 9 10 10 10 9 9 8 7 7 6 6 8 5 6 7 8 8 6 11 13 3 13 7 8 8 10 11 13
14 12 15 12 11 13 12 12 11 12 12 11 10 9 9 10 10 10 10 10 10 8 8 7 7 7 9 13 13 11 10 8 10 13 4 9 7 10 8 7 10 12 15
14 14 15 12 10 13 13 13 13 12 12 11 10 9 9 10 10 10 10 9 8 7 7 7 7 10 12 12 10 9 8 2 12 8 5 6 13 7 7 12 12 13 13
14 15 15 12 13 14 12 13 13 12 12 11 10 9 9 10 10 9 8 6 6 7 7 8 8 9 12 13 13 12 8 9 7 8 7 10 10 12 12 12 12 12 13
13 14 15 11 15 13 12 12 12 12 11 11 10 10 10 10 9 8 7 7 6 7 11 11 11 11 12 13 12 10 7 9 3 6 7 10 10 14 15 13 11 16 15
12 13 13 14 13 12 11 11 11 11 11 10 10 9 10 10 9 7 8 9 7 7 12 12 12 12 11 13 12 9 7 9 8 6 1 12 13 16 18 19 19 19 19
11 11 13 12 13 12 12 10 10 11 11 10 9 9 9 9 8 5 8 10 7 8 10 11 13 13 12 12 10 5 1 7 7 9 13 9 14 17 17 17 16 17 17
9 10 9 10 10 9 11 11 10 9 9 9 9 7 9 5 6 8 10 8 7 9 9 9 10 11 12 12 6 3 12 11 10 10 7 16 16 17 16 16 16 16 17
12 11 10 8 9 8 6 10 8 9 8 6 6 6 4 2 5 7 7 6 7 10 9 8 6 6 14 4 7 10 8 8 8 10 8 14 15 15 14 15 15 16 17
11 9 9 9 6 8 7 6 5 5 5 5 5 5 3 2 2 2 4 5 6 10 7 9 9 1 5 4 5 4 6 6 6 7 11 12 12 13 13 14 14 14 15
10 10 9 10 9 7 5 6 5 4 4 4 5 4 3 4 3 1 1 1 3 2 4 3 5 2 4 3 5 6 5 4 4 7 11 11 13 13 14 14 14 14 15
11 11 11 10 9 7 5 5 4 3 5 3 4 4 2 2 1 3 1 3 2 3 3 5 4 3 4 4 6 6 6 7 5 5 8 11 12 13 13 14 13 13 14
10 11 11 12 10 10 8 5 5 4 4 5 3 1 2 3 2 1 3 3 4 4 4 6 4 5 3 5 6 6 5 6 6 4 8 9 10 11 12 13 13 13 14
11 11 12 12 11 10 9 8 6 6 5 5 4 4 2 4 3 3 3 3 2 4 4 4 4 3 3 3 5 6 5 4 5 5 4 8 9 9 10 10 11 11 11
11 12 12 11 12 12 11 9 7 6 5 5 4 3 4 4 5 5 3 2 5 5 5 5 6 5 4 4 3 3 4 5 5 5 3 4 5 8 7 8 9 9 9
12 11 12 12 14 13 9 6 3 4 4 5 3 4 5 5 4 4 2 4 5 5 5 4 5 5 5 5 5 4 4 5 5 5 5 5 5 4 6 9 7 7 7
10 12 12 12 12 11 8 7 6 6 4 5 5 4 6 5 3 3 4 3 6 5 4 7 4 5 5 6 6 7 5 4 5 5 7 6 7 7 6 8 9 9 10
9 12 14 15 13 11 9 9 6 5 5 5 4 5 5 5 4 3 7 5 6 4 6 5 5 6 6 5 6 5 5 7 8 8 8 8 9 9 8 8 6 6 10
9 10 12 14 14 11 9 6 4 4 4 5 5 4 5 4 5 6 7 4 4 4 5 6 6 5 7 5 7 6 6 8 10 11 9 9 10 9 10 10 10 8 7
8 9 11 12 13 12 9 7 5 4 3 5 6 7 6 7 9 10 7 6 5 6 5 6 7 8 6 7 8 6 5 5 2 9 11 10 10 9 10 11 11 11 10
9 9 10 11 11 10 10 8 8 5 3 2 3 3 4 9 9 8 8 7 7 6 4 6 6 6 7 7 7 9 11 8 4 4 5 8 10 11 11 10 11 11 11
9 9 9 10 11 9 10 8 7 6 4 3 4 5 7 7 9 9 9 8 8 8 7 6 5 7 7 9 7 7 8 9 9 9 9 7 7 9 10 10 11 9 12
9 10 11 12 11 10 9 8 8 5 5 5 7 5 5 5 6 8 9 8 9 9 8 8 7 8 8 7 8 7 7 6 5 7 10 10 7 6 6 7 8 8 8
Wind_Direction
142 124 124 135 140 135 130 115 110 105 104 100 98 98 93 88 85 83 80 75 69 66 66 62 53 44 37 49 61 70 96 98 106 105 95 97 94 83 70 32 181 74 63
125 131 140 133 139 137 130 123 114 107 103 103 98 91 88 81 76 76 74 73 71 69 67 57 47 37 32 34 44 42 136 130 125 122 129 125 99 88 79 59 42 71 61
127 130 147 138 141 142 126 115 109 107 105 100 99 94 85 76 72 67 63 60 57 56 56 58 50 43 45 55 60 63 162 153 146 162 209 226 90 90 87 85 83 77 65
130 140 134 139 145 129 122 113 111 113 110 106 93 79 73 72 67 59 58 59 62 58 60 60 55 41 94 110 95 86 105 138 164 206 219 57 94 98 103 99 97 95 91
131 134 116 142 144 126 115 110 110 108 103 97 90 85 81 75 68 65 63 65 64 64 61 55 55 52 83 78 70 80 97 130 198 229 19 41 99 96 113 123 118 80 60
138 135 128 145 139 118 114 119 117 112 106 99 94 89 83 78 76 73 69 61 58 56 55 59 59 89 85 82 84 80 74 297 248 83 101 99 52 91 90 85 85 85 82
137 123 139 157 136 123 128 124 119 114 113 108 105 103 97 91 87 80 69 57 48 53 67 80 76 85 79 82 78 70 41 342 356 78 98 56 60 68 75 84 90 88 87
141 137 137 149 130 131 135 131 125 122 116 111 108 104 103 102 98 88 67 40 34 56 95 97 81 75 78 80 78 70 43 334 221 53 71 78 69 76 76 74 83 87 80
140 139 146 149 135 132 137 132 125 117 113 106 105 106 113 114 104 86 59 42 49 85 100 98 84 81 73 75 70 59 35 338 312 82 49 89 84 83 80 74 73 75 76
148 150 153 153 160 164 151 136 132 129 126 116 112 112 119 119 124 150 142 51 74 99 100 100 96 87 81 74 70 51 290 250 55 60 53 87 90 83 82 77 76 78 77
157 154 154 161 150 161 135 134 145 131 128 135 137 135 189 145 153 126 59 59 89 119 107 100 103 111 119 102 84 281 264 40 70 68 87 91 90 87 86 89 83 80 79
170 165 162 159 162 151 150 152 155 142 164 171 161 172 193 88 41 51 82 88 94 121 100 100 118 174 213 103 137 213 89 105 105 109 91 90 92 89 89 87 87 84 83
171 159 170 160 177 171 163 161 166 163 160 163 174 205 84 177 165 207 153 161 147 183 152 172 186 175 34 37 61 54 64 89 84 90 78 82 88 90 86 84 84 83 81
170 168 174 165 164 210 160 194 162 176 175 185 167 187 185 214 178 281 345 126 209 149 115 150 38 69 78 53 68 85 86 50 91 117 88 81 86 89 88 89 91 92 91
178 175 180 178 166 217 204 175 197 183 191 170 185 163 250 259 251 235 154 240 195 168 156 103 192 129 136 118 79 75 75 78 91 88 100 95 97 99 99 100 98 99 100
185 182 183 190 177 186 200 195 178 198 161 209 187 174 200 257 209 247 203 199 188 196 159 179 97 217 142 123 102 85 74 80 67 106 121 113 105 102 101 102 103 105 104
195 183 193 192 180 192 199 191 201 181 194 196 189 190 217 247 199 281 242 225 200 195 182 166 219 212 179 159 113 128 118 89 75 73 90 121 131 117 111 107 105 105 107
214 195 193 190 181 194 194 192 196 174 209 207 189 190 191 215 231 232 249 207 202 199 195 162 238 208 203 190 147 167 130 155 144 146 148 123 144 133 143 130 123 124 121
202 205 195 193 198 192 187 190 213 212 228 248 203 205 184 220 227 272 245 225 200 212 204 171 218 237 183 223 193 203 196 180 174 176 157 192 155 167 156 157 162 162 157
209 197 198 194 197 184 169 180 197 210 207 234 237 206 202 217 204 199 230 229 229 227 191 215 247 195 240 217 239 180 222 210 204 202 203 211 186 194 210 194 176 191 195
205 196 192 193 187 178 177 186 196 213 211 216 220 211 213 240 121 205 246 204 230 234 245 198 218 215 219 235 247 232 218 217 228 227 212 213 204 210 211 205 237 192 185
194 194 192 194 185 186 182 189 196 222 209 207 196 141 201 154 196 214 252 235 220 209 211 224 222 218 227 212 244 253 241 198 217 224 230 218 219 216 215 219 223 230 259
188 189 191 193 190 194 187 172 159 155 174 191 190 217 201 203 208 219 218 250 196 253 207 207 202 221 226 193 233 273 243 246 232 183 213 238 225 223 228 224 224 229 229
187 181 182 186 192 192 189 180 185 211 210 172 225 240 186 209 216 213 218 219 219 232 226 208 218 245 233 246 191 228 259 297 275 242 196 217 233 231 235 243 221 228 238
170 174 173 177 182 184 185 195 189 233 168 159 211 233 230 198 219 218 216 222 221 224 205 244 213 222 221 256 249 236 219 228 228 264 275 198 208 232 227 220 249 233 214
161 167 168 171 175 178 187 194 211 214 217 216 234 253 244 222 205 228 233 230 225 225 218 218 227 225 242 248 256 257 253 238 233 232 246 255 262 210 224 220 215 237 250